Home > Weather > Curitiba > Past weeks

Flag for Brazil Past Weather in Curitiba, Paraná, Brazil — Yesterday and Last 2 Weeks

Now
63 °F

Passing clouds.


Feels Like: 63 °F
Forecast: N/A
Wind: 5 mph from Northeast

Location: Curitiba Aeroporto

Current Time: Jul 30, 2016 at 5:49:33 PM

Latest Report: Jul 30, 2016 at 5:00 PM


Visibility: N/A

Pressure: 30.24 "Hg (27.15 "Hg at 915m altitude)

Humidity: 73%

Dew Point: 54 °F

Location of CuritibaLocation

Past Weather in Curitiba — Graph

°F

Curitiba Temperature Yesterday

Maximum temperature yesterday: 55 °F (at 11:00 AM)
Minimum temperature yesterday: 50 °F (at 12:00 AM)
Average temperature yesterday: 52 °F

High & Low Weather Summary for the Past Weeks

 TemperatureHumidityPressure
High79 °F (Jul 26, 2:00 PM)100% (Jul 16, 2:00 AM)30.36 "Hg (Jul 16, 2:00 AM)
Low32 °F (Jul 18, 5:00 AM)30% (Jul 27, 3:00 PM)29.86 "Hg (Jul 16, 5:00 AM)
Average54 °F79%30.18 "Hg
* Reported Jul 15 4:00 PM — Jul 30 4:00 PM, Curitiba, Weather by CustomWeather, © 2016

Note: Actual official high and low records may vary slightly from our data, if they occured in-between our weather recording intervals... More about our weather records

Advertising

Curitiba Weather History for the Previous 24 Hours

Scroll right to see more
 ConditionsComfort  
Time TempWeatherWind HumidityBarometerVisibility
4:00 PM
Sat, Jul 30
64 °FPassing clouds.3 mph68%30.24 "HgN/A
3:00 PM66 °FPassing clouds.5 mph64%30.24 "HgN/A
2:00 PM63 °FPartly sunny.8 mph68%30.27 "HgN/A
1:00 PM59 °FPartly sunny.6 mph77%30.30 "HgN/A
12:00 PM61 °FPartly sunny.5 mph72%30.33 "HgN/A
11:00 AM57 °FPartly sunny.8 mph77%30.36 "HgN/A
10:00 AM55 °FOvercast.8 mph82%30.36 "HgN/A
9:00 AM55 °FLow clouds.8 mph82%30.36 "HgN/A
8:00 AM54 °FMore clouds than sun.5 mph88%30.33 "HgN/A
7:00 AM52 °FMore clouds than sun.3 mph94%30.30 "HgN/A
6:00 AM52 °FBroken clouds.2 mph94%30.30 "HgN/A
5:00 AM52 °FMostly cloudy.7 mph94%30.27 "HgN/A
4:00 AM52 °FLow clouds.6 mph94%30.27 "HgN/A
3:00 AM52 °FLow clouds.7 mph94%30.30 "HgN/A
2:00 AM52 °FPartly cloudy.7 mph94%30.30 "HgN/A
1:00 AM52 °FPassing clouds.5 mph94%30.30 "HgN/A
12:00 AM52 °FPassing clouds.6 mph94%30.33 "HgN/A
11:00 PM
Fri, Jul 29
52 °FLow clouds.7 mph94%30.33 "HgN/A
10:00 PM50 °FLow clouds.6 mph94%30.33 "HgN/A
9:00 PM52 °FLow clouds.7 mph94%30.30 "HgN/A
8:00 PM52 °FMostly cloudy.6 mph94%30.30 "HgN/A
7:00 PM52 °FMostly cloudy.7 mph94%30.30 "Hg5 mi
6:00 PM52 °FFog.8 mph94%30.27 "Hg3 mi
5:00 PM54 °FMostly cloudy.7 mph88%30.27 "Hg5 mi
Weather by CustomWeather, © 2016

See weather overviewHow to use our weather pages